Content
SEND FEEDBACK

Daily
Averages
Monthly
Summary
United States of America

ROCK HILL, NEW YORK


Home > North America > United States > New York
Elevation: 384 meters     Latitude: 41 35N     Longitude: 074 37W

WEATHER
 
SELECT A DAY
Number of Records: 453,003;   Date Range: 1/1/95 - 11/25/14
 
SHARE

PRINT THIS DATA

[ ← Previous Day ]
WEATHER ALMANAC - 14 DECEMBER, 2013
[ Next Day → ]
[ °F ]   °C
Weather ElementAverageHighLow
Temperature-10.6 °C-8 °C (12:35 am) (3:35 am)
Dewpoint-14.1 °C-12 °C (11:35 pm) (7:00 pm)
Humidity75.6 %85 % (10:15 pm)63 % (12:35 am)
Barometer1023.4 hPa1029.5 hPa (8:55 am)1009.8 hPa (11:55 pm)
Wind Speed19.8 km/h35.2 km/h (10:35 pm)
Wind Gust51.8 km/h (11:35 pm)
Weather ElementAverage
Visibility5 km
Wind DirectionESE (109.8 °)

Weather ElementTotal
Precipitation---
Heating Degree Days31.2 (Base 18.3)
Averaged from 62 records on 14 December, 2013
WEATHER CONDITIONS BREAKOUT
WIND DIRECTION BREAKOUT
WEATHER BY HOUR - 14 DECEMBER, 2013
[ °F ]   °C
Local TimeTemperatureDewpointHumidityBarometerVisibilityWind DirectionWind SpeedGust SpeedPrecipitationEventsConditions
12:35 AM-8 °C-14 °C63 %1025.4 hPa16.1 kmNNW (330°)11.1 km/hOvercast
12:55 AM-8 °C-13 °C68 %1025.4 hPa16.1 kmNorth (350°)7.4 km/h
1:15 AM-8 °C-14 °C63 %1026.1 hPa16.1 kmWNW (300°)7.4 km/hOvercast
1:35 AM-8 °C-13 °C68 %1026.4 hPa16.1 kmNW (310°)7.4 km/hOvercast
1:55 AM-8 °C-14 °C63 %1026.4 hPa16.1 kmNNW (330°)9.3 km/hOvercast
2:15 AM-8 °C-14 °C63 %1026.4 hPa16.1 kmNorth (350°)7.4 km/hMostly Cloudy
2:35 AM-8 °C-14 °C63 %1026.4 hPa12.9 kmNorth (10°)7.4 km/hMostly Cloudy
2:55 AM-8 °C-13 °C68 %1026.4 hPa6.4 kmNorth (350°)9.3 km/hOvercast
3:15 AM-9 °C-13 °C73 %1026.4 hPa8 kmCalmOvercast
3:35 AM-17.8 °C-17.8 °CNorth
6:55 AM-9 °C-13 °C73 %1027.4 hPa2.9 kmEast (90°)14.8 km/h
7:15 AM-9 °C-13 °C73 %1027.4 hPa8 kmEast (90°)14.8 km/hOvercast
7:35 AM-9 °C-13 °C73 %1028.1 hPa8 kmEast (100°)11.1 km/hOvercast
7:55 AM-10 °C-13 °C79 %1028.4 hPa1.6 kmEast (80°)14.8 km/hOvercast
8:15 AM-11 °C-14 °C79 %1028.8 hPa1.9 kmEast (80°)16.7 km/hOvercast
8:35 AM-11 °C-14 °C79 %1029.1 hPa1.9 kmENE (70°)14.8 km/hOvercast
8:55 AM-11 °C-15 °C73 %1029.5 hPa1.6 kmEast (80°)14.8 km/hOvercast
9:15 AM-11 °C-14 °C79 %1029.5 hPa1.6 kmEast (80°)14.8 km/hOvercast
9:35 AM-11 °C-15 °C73 %1029.5 hPa1.9 kmEast (80°)16.7 km/hOvercast
9:55 AM-12 °C-15 °C79 %1029.5 hPa2.4 kmEast (80°)16.7 km/hOvercast
10:15 AM-12 °C-15 °C79 %1029.5 hPa2.4 kmEast (90°)20.4 km/hOvercast
10:35 AM-11 °C-14 °C79 %1029.5 hPa4.8 kmEast (80°)11.1 km/hOvercast
10:55 AM-11 °C-15 °C73 %1029.5 hPa6.4 kmEast (90°)14.8 km/hMostly Cloudy
11:15 AM-11 °C-14 °C79 %1029.1 hPa8 kmESE (110°)16.7 km/hScattered Clouds
11:35 AM-11 °C-15 °C73 %1028.4 hPa8 kmEast (90°)20.4 km/hMostly Cloudy
11:55 AM-11 °C-14 °C79 %1028.1 hPa4 kmENE (70°)18.5 km/hOvercast
12:15 PM-11 °C-15 °C73 %1028.1 hPa6.4 kmEast (80°)13 km/hMostly Cloudy
12:35 PM-11 °C-14 °C79 %1027.4 hPa4.8 kmEast (100°)16.7 km/hOvercast
12:55 PM-11 °C-14 °C79 %1026.8 hPa4.8 kmENE (70°)18.5 km/hOvercast
1:15 PM-11 °C-14 °C79 %1026.1 hPa4 kmENE (70°)20.4 km/hOvercast
1:35 PM-11 °C-14 °C79 %1025.7 hPa4 kmEast (80°)20.4 km/h33.3 km/hOvercast
1:55 PM-10 °C-13 °C79 %1025.4 hPa4.8 kmEast (90°)18.5 km/h25.9 km/hOvercast
2:15 PM-10 °C-14 °C73 %1025.1 hPa9.7 kmEast (80°)22.2 km/h29.6 km/hOvercast
2:35 PM-10 °C-14 °C73 %1024.4 hPa2.4 kmEast (80°)18.5 km/hOvercast
2:55 PM-11 °C-14 °C79 %1024 hPa2.4 kmEast (90°)25.9 km/h31.5 km/hOvercast
3:15 PM-11 °C-14 °C79 %1023.7 hPa2.4 kmEast (90°)27.8 km/h35.2 km/hOvercast
3:35 PM-11 °C-14 °C79 %1023.7 hPa3.2 kmEast (100°)24.1 km/h31.5 km/hOvercast
3:55 PM-11 °C-14 °C79 %1023.7 hPa2.4 kmEast (100°)22.2 km/hOvercast
4:15 PM-11 °C-14 °C79 %1023.7 hPa2.9 kmEast (100°)29.6 km/h35.2 km/hOvercast
4:35 PM-11 °C-14 °C79 %1022.7 hPa2.9 kmEast (90°)25.9 km/h37 km/hOvercast
4:55 PM-11 °C-15 °C73 %1022.4 hPa3.2 kmEast (90°)24.1 km/h35.2 km/hOvercast
5:15 PM-11 °C-15 °C73 %1021.7 hPa6.4 kmEast (90°)22.2 km/h31.5 km/hOvercast
5:35 PM-11 °C-15 °C73 %1021.7 hPa2.9 kmEast (90°)20.4 km/h29.6 km/hOvercast
5:55 PM-11 °C-15 °C73 %1021.3 hPa4 kmEast (100°)24.1 km/h29.6 km/hOvercast
6:15 PM-12 °C-15 °C79 %1021.3 hPa2.9 kmEast (90°)20.4 km/hOvercast
6:35 PM-12 °C-15 °C79 %1020.7 hPa1.9 kmEast (100°)24.1 km/h37 km/hOvercast
6:55 PM-12 °C-15 °C79 %1020.3 hPa1.3 kmEast (80°)22.2 km/h33.3 km/hOvercast
7:15 PM-12 °C-15 °C79 %1019.6 hPa1.3 kmEast (90°)29.6 km/h35.2 km/hOvercast
7:35 PM-12 °C-15 °C79 %1019 hPa2.9 kmEast (90°)20.4 km/h37 km/hOvercast
7:55 PM-12 °C-16 °C73 %1018.3 hPa1.9 kmEast (90°)22.2 km/h38.9 km/hOvercast
8:15 PM-12 °C-15 °C79 %1017.3 hPa4.8 kmEast (80°)29.6 km/h40.7 km/hOvercast
8:35 PM-11 °C-14 °C79 %1016.9 hPa4.8 kmEast (90°)27.8 km/h37 km/hOvercast
8:55 PM-11 °C-14 °C79 %1016.6 hPa1.9 kmEast (90°)27.8 km/h35.2 km/hOvercast
9:15 PM-11 °C-14 °C79 %1015.9 hPa1.9 kmEast (80°)22.2 km/h37 km/hOvercast
9:35 PM-11 °C-14 °C79 %1014.9 hPa2.4 kmEast (80°)27.8 km/h48.1 km/hOvercast
9:55 PM-11 °C-14 °C79 %1014.2 hPa1.6 kmEast (90°)33.3 km/h40.7 km/hOvercast
10:15 PM-11 °C-13 °C85 %1013.5 hPa1.9 kmEast (80°)29.6 km/h38.9 km/hOvercast
10:35 PM-10 °C-13 °C79 %1012.9 hPa1.3 kmEast (80°)35.2 km/h44.4 km/hOvercast
10:55 PM-10 °C-13 °C79 %1011.9 hPa1.9 kmEast (80°)24.1 km/h40.7 km/hOvercast
11:15 PM-9 °C-13 °C73 %1010.8 hPa1.6 kmEast (80°)33.3 km/h46.3 km/hOvercast
11:35 PM-9 °C-12 °C79 %1010.5 hPa1.9 kmEast (80°)29.6 km/h51.8 km/hOvercast
11:55 PM-9 °C-12 °C79 %1009.8 hPa2.4 kmEast (80°)29.6 km/h46.3 km/hOvercast
Hourly data recorded from KMSV, located 0 kilometers away from Rock Hill, New York







STORIES FROM OUR PARTNERS